Vidalia, GA

11:54 AM EDT on April 19, 2018 (GMT -0400)
Vidalia Municipal

Weather History for KVDI - October, 2012

Change the Weather History Date:

Monday, October 29, 2012

  Actual Average (KSBO) Record (KSBO)
Temperature  
Mean Temperature 55 °F -  
Max Temperature 64 °F 75 °F 86 °F (2014)
Min Temperature 46 °F 48 °F 37 °F (2017)
Degree Days  
Heating Degree Days 10    
Growing Degree Days 5 (Base 50)    
Moisture  
Dew Point 38 °F    
Average Humidity 55    
Maximum Humidity 81    
Minimum Humidity 32    
Precipitation  
Precipitation 0.00 in - - ()
Sea Level Pressure  
Sea Level Pressure 29.75 in    
Wind  
Wind Speed 11 mph (NW)    
Max Wind Speed 18 mph    
Max Gust Speed 29 mph    
Visibility 10 miles    
Events      
Averages and records for this station are not official NWS values.
T = Trace of Precipitation, MM = Missing Value Source: NWS Daily Summary

Daily Weather History Graph

Daily Weather History Graph

Search for Another Location

Airport or City:

Astronomy

Oct. 29, 2012 Rise Set
Actual Time 7:44 AM EDT 6:41 PM EDT
Civil Twilight 7:19 AM EDT 7:06 PM EDT
Nautical Twilight 6:50 AM EDT 7:35 PM EDT
Astronomical Twilight 6:21 AM EDT 8:04 PM EDT
Moon 6:35 PM EDT (10/29) 7:31 AM EDT (10/29)
Length of Visible Light 11h 47m
Length of Day
10h 57m
Full, 100% of the Moon is Illuminated
Oct 29
Full
Oct 29
Full
Nov 6
Last Quarter
Nov 13
New
Nov 20
First Quarter

Hourly Weather History & Observations

Time (EDT) Temp. Windchill Dew Point Humidity Pressure Visibility Wind Dir Wind Speed Gust Speed Precip Events Conditions
12:15 AM 53.6 °F - 42.8 °F 67% 29.78 in 10.0 mi NW 9.2 mph 16.1 mph N/A   Clear
12:35 AM 53.6 °F - 42.8 °F 67% 29.78 in 10.0 mi WNW 9.2 mph 19.6 mph N/A   Clear
12:55 AM 53.6 °F - 42.8 °F 67% 29.77 in 10.0 mi NW 12.7 mph 16.1 mph N/A   Clear
1:15 AM 53.6 °F - 42.8 °F 67% 29.78 in 10.0 mi NW 15.0 mph 23.0 mph N/A   Mostly Cloudy
1:35 AM 53.6 °F - 42.8 °F 67% 29.79 in 10.0 mi NW 11.5 mph 17.3 mph N/A   Scattered Clouds
1:55 AM 51.8 °F - 42.8 °F 71% 29.78 in 10.0 mi NW 9.2 mph 18.4 mph N/A   Clear
2:15 AM 51.8 °F - 42.8 °F 71% 29.78 in 10.0 mi NW 13.8 mph 18.4 mph N/A   Clear
2:35 AM 51.8 °F - 42.8 °F 71% 29.78 in 10.0 mi NW 9.2 mph - N/A   Clear
2:55 AM 51.8 °F - 42.8 °F 71% 29.77 in 10.0 mi WNW 9.2 mph 17.3 mph N/A   Clear
3:15 AM 50.0 °F - 42.8 °F 76% 29.76 in 10.0 mi WNW 10.4 mph 16.1 mph N/A   Scattered Clouds
3:35 AM 50.0 °F - 42.8 °F 76% 29.76 in 10.0 mi WNW 9.2 mph - N/A   Mostly Cloudy
3:55 AM 50.0 °F - 41.0 °F 71% 29.77 in 10.0 mi WNW 10.4 mph 16.1 mph N/A   Overcast
4:15 AM 50.0 °F - 41.0 °F 71% 29.77 in 10.0 mi WNW 8.1 mph - N/A   Scattered Clouds
4:35 AM 50.0 °F - 41.0 °F 71% 29.76 in 10.0 mi WNW 8.1 mph - N/A   Clear
4:55 AM 48.2 °F - 41.0 °F 76% 29.76 in 10.0 mi WNW 8.1 mph - N/A   Clear
5:15 AM 48.2 °F - 41.0 °F 76% 29.76 in 10.0 mi WNW 6.9 mph - N/A   Clear
5:35 AM 48.2 °F - 41.0 °F 76% 29.77 in 10.0 mi WNW 6.9 mph - N/A   Clear
5:55 AM 48.2 °F - 41.0 °F 76% 29.77 in 10.0 mi WNW 8.1 mph - N/A   Clear
6:15 AM 46.4 °F 42.4 °F 41.0 °F 81% 29.77 in 10.0 mi NW 8.1 mph - N/A   Clear
6:35 AM 46.4 °F 42.9 °F 41.0 °F 81% 29.77 in 10.0 mi WNW 6.9 mph - N/A   Clear
6:55 AM 46.4 °F 42.4 °F 41.0 °F 81% 29.78 in 10.0 mi WNW 8.1 mph - N/A   Clear
7:15 AM 46.4 °F 42.9 °F 41.0 °F 81% 29.78 in 10.0 mi NW 6.9 mph - N/A   Clear
7:35 AM 46.4 °F 42.4 °F 39.2 °F 76% 29.79 in 10.0 mi NW 8.1 mph - N/A   Clear
7:55 AM 46.4 °F 41.9 °F 41.0 °F 81% 29.79 in 10.0 mi NW 9.2 mph - N/A   Clear
8:15 AM 48.2 °F - 41.0 °F 76% 29.80 in 10.0 mi NW 9.2 mph - N/A   Clear
8:35 AM 50.0 °F - 41.0 °F 71% 29.80 in 10.0 mi NW 9.2 mph 18.4 mph N/A   Clear
8:55 AM 50.0 °F - 41.0 °F 71% 29.80 in 10.0 mi NW 11.5 mph 20.7 mph N/A   Clear
9:15 AM 51.8 °F - 41.0 °F 67% 29.80 in 10.0 mi WNW 13.8 mph 23.0 mph N/A   Clear
9:35 AM 51.8 °F - 41.0 °F 67% 29.80 in 10.0 mi WNW 12.7 mph 20.7 mph N/A   Clear
9:55 AM 53.6 °F - 41.0 °F 62% 29.80 in 10.0 mi NW 10.4 mph 23.0 mph N/A   Clear
10:15 AM 55.4 °F - 39.2 °F 54% 29.79 in 10.0 mi NW 15.0 mph 23.0 mph N/A   Clear
10:35 AM 55.4 °F - 39.2 °F 54% 29.79 in 10.0 mi NW 15.0 mph 23.0 mph N/A   Clear
10:55 AM 57.2 °F - 37.4 °F 48% 29.79 in 10.0 mi NW 18.4 mph 26.5 mph N/A   Clear
11:15 AM 59.0 °F - 37.4 °F 45% 29.79 in 10.0 mi NNW 16.1 mph 23.0 mph N/A   Clear
11:35 AM 59.0 °F - 37.4 °F 45% 29.78 in 10.0 mi NNW 17.3 mph 24.2 mph N/A   Clear
11:55 AM 60.8 °F - 37.4 °F 42% 29.77 in 10.0 mi NW 15.0 mph 20.7 mph N/A   Clear
12:15 PM 60.8 °F - 37.4 °F 42% 29.77 in 10.0 mi NW 11.5 mph 27.6 mph N/A   Clear
12:35 PM 62.6 °F - 37.4 °F 39% 29.76 in 10.0 mi WNW 11.5 mph 24.2 mph N/A   Clear
12:55 PM 60.8 °F - 35.6 °F 39% 29.75 in 10.0 mi NW 11.5 mph 25.3 mph N/A   Clear
1:15 PM 62.6 °F - 35.6 °F 37% 29.74 in 10.0 mi NW 17.3 mph 24.2 mph N/A   Clear
1:55 PM 62.6 °F - 35.6 °F 37% 29.71 in 10.0 mi WNW 13.8 mph 23.0 mph N/A   Clear
2:15 PM 64.4 °F - 35.6 °F 34% 29.71 in 10.0 mi WNW 12.7 mph 24.2 mph N/A   Clear
2:35 PM 64.4 °F - 35.6 °F 34% 29.69 in 10.0 mi WNW 13.8 mph 26.5 mph N/A   Clear
2:55 PM 64.4 °F - 33.8 °F 32% 29.69 in 10.0 mi WNW 12.7 mph 24.2 mph N/A   Clear
3:15 PM 64.4 °F - 33.8 °F 32% 29.68 in 10.0 mi NW 17.3 mph 25.3 mph N/A   Clear
3:35 PM 64.4 °F - 33.8 °F 32% 29.68 in 10.0 mi NNW 17.3 mph 28.8 mph N/A   Clear
3:55 PM 64.4 °F - 33.8 °F 32% 29.68 in 10.0 mi WNW 16.1 mph 28.8 mph N/A   Clear
4:15 PM 64.4 °F - 33.8 °F 32% 29.67 in 10.0 mi NW 15.0 mph 24.2 mph N/A   Clear
4:35 PM 64.4 °F - 33.8 °F 32% 29.67 in 10.0 mi NW 17.3 mph 25.3 mph N/A   Clear
4:55 PM 64.4 °F - 33.8 °F 32% 29.67 in 10.0 mi WNW 13.8 mph 28.8 mph N/A   Clear
5:15 PM 62.6 °F - 33.8 °F 34% 29.68 in 10.0 mi NW 16.1 mph 26.5 mph N/A   Clear
5:35 PM 62.6 °F - 32.0 °F 32% 29.68 in 10.0 mi WNW 15.0 mph 27.6 mph N/A   Clear
5:55 PM 60.8 °F - 32.0 °F 34% 29.68 in 10.0 mi NW 11.5 mph 26.5 mph N/A   Clear
6:15 PM 60.8 °F - 32.0 °F 34% 29.69 in 10.0 mi NW 12.7 mph 25.3 mph N/A   Clear
6:35 PM 59.0 °F - 32.0 °F 36% 29.70 in 10.0 mi NW 15.0 mph 28.8 mph N/A   Clear
6:55 PM 59.0 °F - 32.0 °F 36% 29.70 in 10.0 mi NW 8.1 mph 23.0 mph N/A   Clear
7:15 PM 57.2 °F - 32.0 °F 38% 29.71 in 10.0 mi WNW 10.4 mph 19.6 mph N/A   Clear
7:35 PM 57.2 °F - 33.8 °F 41% 29.72 in 10.0 mi NW 15.0 mph 26.5 mph N/A   Clear
7:55 PM 55.4 °F - 33.8 °F 44% 29.72 in 10.0 mi WNW 13.8 mph 21.9 mph N/A   Clear
8:15 PM 55.4 °F - 33.8 °F 44% 29.73 in 10.0 mi NW 15.0 mph 26.5 mph N/A   Clear
8:35 PM 55.4 °F - 33.8 °F 44% 29.72 in 10.0 mi NW 11.5 mph 18.4 mph N/A   Clear
11:55 PM 51.8 °F - 32.0 °F 47% 29.73 in 10.0 mi West 6.9 mph - N/A   Clear